Voltar ao catálogo

COSMOS 1970

GLONASS

AtivoNavegaçãoMEO
NORAD 19501·PAYLOAD·🇷🇺 Russia

Lançado Sep 16, 1988 de Baikonur Cosmodrome

Loading…

Próximas Passagens (próximas 24 horas)

TLE

EnvelhecendoSource: Space-Track

Época: Aug 30, 2026, 10:37 UTC

1 19501U 88085A   26242.44259675 -.00000023  00000-0  00000+0 0  9998
2 19501  65.1944 311.9466 0008507  37.6974 322.3540  2.13102175295358

Acompanhe COSMOS 1970 em tempo real com AllMySat

Download on the App Store